TimeCST,TemperatureF,Dew PointF,Humidity,Sea Level PressureIn,VisibilityMPH,Wind Direction,Wind SpeedMPH,Gust SpeedMPH,PrecipitationIn,Events,Conditions,WindDirDegrees,DateUTC
12:15 AM,52.0,-1.1,11,30.04,10.0,SE,6.9,-,N/A,,Clear,130,2013-02-27 06:15:00
12:35 AM,48.2,2.3,15,30.07,10.0,NE,20.7,34.5,N/A,,Clear,50,2013-02-27 06:35:00
12:55 AM,44.2,4.5,19,30.11,10.0,NNE,13.8,-,N/A,,Clear,30,2013-02-27 06:55:00
1:15 AM,42.4,3.9,20,30.10,10.0,East,19.6,25.3,N/A,,Clear,90,2013-02-27 07:15:00
1:35 AM,41.7,2.3,19,30.13,10.0,North,8.1,-,N/A,,Clear,10,2013-02-27 07:35:00
1:55 AM,40.1,2.3,21,30.13,10.0,NNE,9.2,-,N/A,,Clear,30,2013-02-27 07:55:00
2:15 AM,39.6,1.8,21,30.14,10.0,NNE,9.2,16.1,N/A,,Clear,20,2013-02-27 08:15:00
2:35 AM,39.0,1.6,21,30.14,10.0,NNE,9.2,-,N/A,,Clear,30,2013-02-27 08:35:00
2:55 AM,38.1,1.4,21,30.14,10.0,NNE,9.2,-,N/A,,Clear,30,2013-02-27 08:55:00
3:15 AM,37.0,0.7,22,30.15,10.0,NNE,9.2,-,N/A,,Clear,30,2013-02-27 09:15:00
3:35 AM,37.4,-0.0,21,30.15,10.0,NNE,5.8,-,N/A,,Clear,20,2013-02-27 09:35:00
3:55 AM,35.8,-0.2,22,30.15,10.0,NNE,5.8,-,N/A,,Clear,30,2013-02-27 09:55:00
4:15 AM,36.0,-0.2,22,30.16,10.0,NNE,8.1,-,N/A,,Clear,30,2013-02-27 10:15:00
4:35 AM,36.1,-0.4,21,30.16,10.0,NE,10.4,17.3,N/A,,Clear,50,2013-02-27 10:35:00
4:55 AM,35.8,-0.6,21,30.17,10.0,NE,10.4,-,N/A,,Clear,40,2013-02-27 10:55:00
5:15 AM,35.6,-0.8,21,30.18,10.0,NE,12.7,18.4,N/A,,Clear,50,2013-02-27 11:15:00
5:35 AM,35.1,-0.9,22,30.20,10.0,NE,9.2,-,N/A,,Clear,50,2013-02-27 11:35:00
5:55 AM,34.2,-0.6,23,30.21,10.0,ENE,6.9,-,N/A,,Clear,60,2013-02-27 11:55:00
6:35 AM,33.1,0.9,25,30.24,10.0,NE,8.1,-,N/A,,Clear,50,2013-02-27 12:35:00
6:55 AM,31.5,2.7,29,30.24,10.0,ENE,13.8,-,N/A,,Clear,60,2013-02-27 12:55:00
7:15 AM,32.0,5.4,33,30.25,10.0,NE,5.8,-,N/A,,Clear,40,2013-02-27 13:15:00
7:35 AM,32.0,5.4,33,30.26,10.0,NE,8.1,-,N/A,,Clear,40,2013-02-27 13:35:00
7:55 AM,32.4,7.0,34,30.27,10.0,ENE,9.2,-,N/A,,Clear,70,2013-02-27 13:55:00
8:15 AM,32.7,9.0,37,30.28,10.0,ENE,8.1,-,N/A,,Clear,60,2013-02-27 14:15:00
8:35 AM,34.7,11.7,39,30.28,10.0,ENE,11.5,-,N/A,,Clear,60,2013-02-27 14:35:00
8:55 AM,36.7,15.1,41,30.30,10.0,NE,11.5,-,N/A,,Clear,40,2013-02-27 14:55:00
9:15 AM,37.9,17.6,44,30.30,10.0,NE,15.0,-,N/A,,Clear,50,2013-02-27 15:15:00
9:35 AM,38.8,17.4,42,30.31,10.0,NNE,13.8,-,N/A,,Clear,30,2013-02-27 15:35:00
9:55 AM,40.1,17.2,40,30.31,10.0,NNE,15.0,18.4,N/A,,Clear,30,2013-02-27 15:55:00
10:15 AM,40.8,15.4,36,30.31,10.0,NNE,16.1,21.9,N/A,,Clear,20,2013-02-27 16:15:00
10:35 AM,41.5,15.8,35,30.31,10.0,NNE,16.1,20.7,N/A,,Clear,30,2013-02-27 16:35:00
10:55 AM,41.9,15.8,35,30.31,10.0,ENE,15.0,21.9,N/A,,Clear,60,2013-02-27 16:55:00
11:15 AM,42.4,16.0,34,30.31,10.0,ENE,15.0,-,N/A,,Clear,60,2013-02-27 17:15:00
11:35 AM,43.5,16.0,33,30.32,10.0,ENE,12.7,19.6,N/A,,Clear,70,2013-02-27 17:35:00
11:55 AM,44.6,14.9,30,30.32,10.0,NE,17.3,23.0,N/A,,Clear,50,2013-02-27 17:55:00
12:15 PM,45.1,14.0,29,30.31,10.0,NNE,13.8,18.4,N/A,,Clear,30,2013-02-27 18:15:00
12:35 PM,46.0,14.2,28,30.30,10.0,NE,13.8,19.6,N/A,,Clear,40,2013-02-27 18:35:00
12:55 PM,46.6,14.4,27,30.30,10.0,ENE,11.5,18.4,N/A,,Clear,60,2013-02-27 18:55:00
1:15 PM,46.4,14.4,28,30.29,10.0,North,8.1,21.9,N/A,,Clear,10,2013-02-27 19:15:00
1:35 PM,47.3,14.5,27,30.28,10.0,NNE,9.2,20.7,N/A,,Clear,20,2013-02-27 19:35:00
1:55 PM,47.8,14.4,26,30.27,10.0,NE,15.0,21.9,N/A,,Clear,50,2013-02-27 19:55:00
2:35 PM,47.8,15.6,28,30.26,10.0,NE,5.8,17.3,N/A,,Clear,40,2013-02-27 20:35:00
2:55 PM,49.1,16.5,27,30.26,10.0,NE,12.7,17.3,N/A,,Clear,50,2013-02-27 20:55:00
3:15 PM,49.1,16.0,27,30.25,10.0,NE,8.1,19.6,N/A,,Clear,40,2013-02-27 21:15:00
3:35 PM,49.5,14.5,25,30.24,10.0,East,9.2,17.3,N/A,,Clear,80,2013-02-27 21:35:00
3:55 PM,49.1,13.6,24,30.24,10.0,ENE,10.4,-,N/A,,Clear,60,2013-02-27 21:55:00
4:15 PM,49.8,12.9,23,30.24,10.0,NNE,8.1,17.3,N/A,,Clear,20,2013-02-27 22:15:00
4:35 PM,48.7,12.4,23,30.25,10.0,NE,8.1,-,N/A,,Clear,40,2013-02-27 22:35:00
4:55 PM,48.6,12.6,24,30.24,10.0,NNE,11.5,16.1,N/A,,Clear,20,2013-02-27 22:55:00
5:15 PM,47.8,12.2,24,30.24,10.0,NNE,12.7,17.3,N/A,,Clear,20,2013-02-27 23:15:00
5:35 PM,47.5,12.2,24,30.24,10.0,NNE,9.2,-,N/A,,Clear,30,2013-02-27 23:35:00
5:55 PM,46.8,12.4,25,30.24,10.0,North,10.4,-,N/A,,Clear,10,2013-02-27 23:55:00
6:15 PM,46.6,12.9,26,30.24,10.0,North,10.4,-,N/A,,Clear,360,2013-02-28 00:15:00
6:35 PM,45.9,12.9,27,30.25,10.0,NNE,8.1,16.1,N/A,,Clear,20,2013-02-28 00:35:00
6:55 PM,44.1,12.9,28,30.26,10.0,North,5.8,-,N/A,,Clear,10,2013-02-28 00:55:00
7:15 PM,42.1,13.1,31,30.27,10.0,North,4.6,-,N/A,,Clear,10,2013-02-28 01:15:00
7:35 PM,40.1,13.1,33,30.27,10.0,North,3.5,-,N/A,,Clear,10,2013-02-28 01:35:00
8:15 PM,37.8,13.1,36,30.28,10.0,Calm,Calm,-,N/A,,Clear,0,2013-02-28 02:15:00
8:35 PM,36.9,13.3,38,30.28,10.0,Calm,Calm,-,N/A,,Clear,0,2013-02-28 02:35:00
8:55 PM,36.3,13.3,39,30.28,10.0,Calm,Calm,-,N/A,,Clear,0,2013-02-28 02:55:00
9:15 PM,32.5,11.3,41,30.28,10.0,Calm,Calm,-,N/A,,Clear,0,2013-02-28 03:15:00
9:35 PM,33.3,12.2,42,30.29,10.0,Calm,Calm,-,N/A,,Clear,0,2013-02-28 03:35:00
9:55 PM,31.5,11.7,44,30.30,10.0,SE,3.5,-,N/A,,Clear,140,2013-02-28 03:55:00
10:15 PM,31.1,11.8,45,30.30,10.0,Calm,Calm,-,N/A,,Clear,0,2013-02-28 04:15:00
10:35 PM,30.2,11.5,46,30.30,10.0,Calm,Calm,-,N/A,,Clear,0,2013-02-28 04:35:00
10:55 PM,28.0,10.9,49,30.31,10.0,Calm,Calm,-,N/A,,Clear,0,2013-02-28 04:55:00
11:15 PM,31.3,12.2,45,30.31,10.0,Calm,Calm,-,N/A,,Clear,0,2013-02-28 05:15:00